Faith, SD

7:37 AM MDT on April 28, 2017 (GMT -0600)
Faith

Weather History for KD07 - March, 2014

Change the Weather History Date:

Wednesday, March 12, 2014

  Actual Average Record
Temperature  
Mean Temperature 40 °F 31 °F  
Max Temperature 52 °F 41 °F 81 °F (2007)
Min Temperature 28 °F 21 °F -5 °F (2009)
Degree Days  
Heating Degree Days 25 34  
Month to date heating degree days 509 430  
Since 1 July heating degree days 6595 6118  
Cooling Degree Days 0 0  
Month to date cooling degree days 0 0  
Year to date cooling degree days 0 0  
Moisture  
Dew Point 29 °F    
Average Humidity 65    
Maximum Humidity 85    
Minimum Humidity 44    
Precipitation  
Precipitation 0.00 in 0.03 in 0.10 in (2017)
Month to date precipitation 0.69 0.27  
Year to date precipitation 1.59 0.89  
Sea Level Pressure  
Sea Level Pressure 30.14 in    
Wind  
Wind Speed 15 mph (West)    
Max Wind Speed 23 mph    
Max Gust Speed 29 mph    
T = Trace of Precipitation, MM = Missing Value Source: NWS Daily Summary

Daily Weather History Graph

Daily Weather History Graph

Search for Another Location

Airport or City:

Trip Planner

Search our weather history database for the weather conditions in past years. The results will help you decide how hot, cold, wet, or windy it might be!

Date:

Astronomy

Mar. 12, 2014 Rise Set
Actual Time 7:06 AM MDT 6:50 PM MDT
Civil Twilight 6:36 AM MDT 7:19 PM MDT
Nautical Twilight 6:02 AM MDT 7:53 PM MDT
Astronomical Twilight 5:28 AM MDT 8:28 PM MDT
Moon 3:15 PM MDT (3/12) 4:47 AM MDT (3/12)
Length of Visible Light 12h 42m
Length of Day
11h 44m
Waxing Gibbous, 86% of the Moon is Illuminated
Mar 12
Waxing Gibbous
Mar 16
Full
Mar 23
Last Quarter
Mar 30
New
Apr 7
First Quarter

Hourly Weather History & Observations

Time (MDT) Temp. Windchill Dew Point Humidity Pressure Visibility Wind Dir Wind Speed Gust Speed Precip Events Conditions
12:56 AM 33.1 °F 23.0 °F 28.0 °F 82% 30.25 in - West 15.0 mph - N/A   Unknown
1:56 AM 33.1 °F 23.4 °F 28.9 °F 85% 30.24 in - West 13.8 mph - N/A   Unknown
2:56 AM 30.9 °F 19.8 °F 27.0 °F 85% 30.23 in - WNW 16.1 mph - N/A   Unknown
3:56 AM 30.0 °F 20.5 °F 26.1 °F 85% 30.22 in - WNW 11.5 mph - N/A   Unknown
4:56 AM 28.9 °F 19.8 °F 25.0 °F 85% 30.20 in - West 10.4 mph - N/A   Unknown
5:56 AM 28.9 °F 19.8 °F 25.0 °F 85% 30.22 in - West 10.4 mph - N/A   Unknown
6:56 AM 30.0 °F 20.0 °F 24.1 °F 79% 30.21 in - West 12.7 mph - N/A   Unknown
7:56 AM 30.9 °F 20.7 °F 24.1 °F 76% 30.20 in - West 13.8 mph - N/A   Unknown
8:56 AM 33.1 °F 23.9 °F 25.0 °F 72% 30.20 in - West 12.7 mph - N/A   Unknown
9:56 AM 36.0 °F 26.0 °F 27.0 °F 70% 30.19 in - West 17.3 mph - N/A   Unknown
10:56 AM 37.9 °F 29.2 °F 28.9 °F 70% 30.18 in - West 15.0 mph - N/A   Unknown
11:56 AM 39.9 °F 31.8 °F 30.9 °F 70% 30.17 in - West 15.0 mph - N/A   Unknown
12:56 PM 44.1 °F 37.1 °F 33.1 °F 65% 30.14 in - West 15.0 mph - N/A   Unknown
1:56 PM 50.0 °F - 32.0 °F 50% 30.10 in - NW 18.4 mph 24.2 mph N/A   Unknown
2:56 PM 51.1 °F - 30.9 °F 46% 30.10 in - NW 21.9 mph - N/A   Unknown
3:56 PM 52.0 °F - 32.0 °F 47% 30.09 in - WNW 21.9 mph - N/A   Unknown
4:56 PM 51.1 °F - 30.9 °F 46% 30.08 in - WNW 20.7 mph 27.6 mph N/A   Unknown
5:56 PM 48.9 °F - 32.0 °F 52% 30.08 in - West 17.3 mph - N/A   Unknown
6:56 PM 43.0 °F 36.4 °F 35.1 °F 74% 30.08 in - West 12.7 mph - N/A   Unknown
7:56 PM 39.9 °F 32.5 °F 33.1 °F 77% 30.08 in - West 12.7 mph - N/A   Unknown
8:56 PM 39.9 °F 32.1 °F 32.0 °F 73% 30.07 in - West 13.8 mph - N/A   Unknown
9:56 PM 39.0 °F 31.0 °F 30.0 °F 70% 30.06 in - West 13.8 mph - N/A   Unknown
10:56 PM 39.0 °F 31.0 °F 28.9 °F 67% 30.04 in - West 13.8 mph - N/A   Unknown
11:56 PM 37.9 °F 29.6 °F 28.0 °F 68% 30.04 in - West 13.8 mph - N/A   Unknown